Location: Banska Bystrica
(48.7333°N, 19.1500°E)
Time: 13:29:13
(UTC+02:00)

ISS - Visible Passes

Search period start: 14 May 2021 00:00
Search period end: 24 May 2021 00:00
Orbit: 417 x 422 km, 51.6° (Epoch: 14 May)

Date Brightness Start Highest point End Pass type
(mag) Time Alt. Az. Time Alt. Az. Time Alt. Az.
14 May -2.8 01:18:38 30° WNW 01:19:55 49° N 01:23:13 10° ENE visible
14 May -3.7 02:53:34 10° WNW 02:56:58 81° NNE 03:00:21 10° ESE visible
14 May -2.0 21:17:10 10° S 21:19:08 15° SE 21:21:06 10° E visible
14 May -3.9 22:52:07 10° WSW 22:55:28 69° SSE 22:58:49 10° ENE visible
15 May -2.9 00:29:05 10° W 00:32:23 51° N 00:35:43 10° ENE visible
15 May -3.4 02:06:08 10° WNW 02:09:29 65° NNE 02:12:51 10° E visible
15 May -3.2 03:43:03 10° WNW 03:46:12 36° SSW 03:49:20 10° SE visible
15 May -3.6 22:04:49 10° SW 22:08:04 48° SSE 22:11:20 10° ENE visible
15 May -3.2 23:41:33 10° W 23:44:53 57° N 23:48:13 10° ENE visible
16 May -3.1 01:18:39 10° WNW 01:21:59 55° N 01:25:19 10° E visible
16 May -3.7 02:55:31 10° WNW 02:58:49 53° SSW 03:02:08 10° SE visible
16 May -3.1 21:17:39 10° SSW 21:20:42 32° SE 21:23:46 10° E visible
16 May -3.5 22:54:01 10° W 22:57:22 69° NNW 23:00:45 10° ENE visible
17 May -2.9 00:31:10 10° WNW 00:34:27 50° N 00:37:46 10° E visible
17 May -3.9 02:08:02 10° WNW 02:11:25 76° SSW 02:14:47 10° ESE visible
17 May -2.2 03:45:34 10° W 03:47:48 17° SW 03:50:01 10° S visible
17 May -3.8 22:06:31 10° WSW 22:09:53 87° NNW 22:13:17 10° ENE visible
17 May -2.8 23:43:37 10° WNW 23:46:55 49° N 23:49:59 11° ENE visible
18 May -2.8 01:20:34 10° WNW 01:22:53 40° WNW 01:22:53 40° WNW visible
18 May -3.8 21:19:06 10° WSW 21:22:26 69° SSE 21:25:48 10° ENE visible
18 May -2.9 22:56:04 10° W 22:59:23 51° N 23:02:41 10° ENE visible
19 May -3.4 00:33:06 10° WNW 00:36:28 65° NNE 00:36:28 65° NNE visible
19 May -3.1 22:08:31 10° W 22:11:51 57° N 22:15:11 10° ENE visible
19 May -3.1 23:45:37 10° WNW 23:48:57 55° N 23:50:16 31° ENE visible
20 May -1.4 01:22:29 10° WNW 01:23:11 15° WNW 01:23:11 15° WNW visible
20 May -3.4 21:20:58 10° W 21:24:19 68° NNW 21:27:41 10° ENE visible
20 May -2.9 22:58:06 10° WNW 23:01:24 50° N 23:04:09 14° E visible
21 May -2.6 00:34:59 10° WNW 00:37:06 35° WNW 00:37:06 35° WNW visible
21 May -2.8 22:10:33 10° WNW 22:13:51 49° N 22:17:08 10° ENE visible
21 May -3.8 23:47:30 10° WNW 23:50:53 82° NNE 23:51:02 78° ENE visible
22 May -2.9 21:22:59 10° W 21:26:17 51° N 21:29:36 10° ENE visible
22 May -3.4 23:00:01 10° WNW 23:03:22 65° NNE 23:05:01 27° E visible
23 May -1.5 00:36:57 10° W 00:37:57 17° W 00:37:57 17° W visible
23 May -3.1 22:12:31 10° WNW 22:15:50 55° N 22:19:01 11° E visible
23 May -3.1 23:49:23 10° WNW 23:51:57 42° WSW 23:51:57 42° WSW visible
